Location: Brighton Point
(40.6144°N, 111.7933°W)
Time: 12:32:43
(UTC+00:00)

Hubble Space Telescope - Pass Details

Date: 09 March 2021
Orbit: 535 x 539 km, 28.5° (Epoch: 10 April)

Event Time Altitude Azimuth Distance (km) Brightness Sun altitude
Rises 02:07:56 0° 232° (SW) 2,662 5.2 -8.6°
Reaches altitude 10° 02:11:04 10° 207° (SSW) 1,773 3.8 -9.2°
Maximum altitude 02:13:16 14° 175° (S) 1,523 3.0 -9.6°
Drops below altitude 10° 02:15:29 10° 142° (SE) 1,774 3.0 -10.1°
Enters shadow 02:16:20 - 133° (SE) 1,972 3.2 -10.2°
